Year,Month,Day,Hour,Minute,Value (Times are PST for temperature in C)
2018,08,16,00,00,14.60
2018,08,16,00,01,14.70
2018,08,16,00,02,14.70
2018,08,16,00,03,14.70
2018,08,16,00,04,14.70
2018,08,16,00,05,14.70
2018,08,16,00,06,14.70
2018,08,16,00,07,14.70
2018,08,16,00,08,14.70
2018,08,16,00,09,14.70
2018,08,16,00,10,14.70
2018,08,16,00,11,14.70
2018,08,16,00,12,14.70
2018,08,16,00,13,14.70
2018,08,16,00,14,14.70
2018,08,16,00,15,14.70
2018,08,16,00,16,14.70
2018,08,16,00,17,14.70
2018,08,16,00,18,14.70
2018,08,16,00,19,14.70
2018,08,16,00,20,14.70
2018,08,16,00,21,14.70
2018,08,16,00,22,14.70
2018,08,16,00,23,14.70
2018,08,16,00,24,14.70
2018,08,16,00,25,14.70
2018,08,16,00,26,14.70
2018,08,16,00,27,14.70
2018,08,16,00,28,14.70
2018,08,16,00,29,14.70
2018,08,16,00,30,14.70
2018,08,16,00,31,14.70
2018,08,16,00,32,14.70
2018,08,16,00,33,14.70
2018,08,16,00,34,14.70
2018,08,16,00,35,14.70
2018,08,16,00,36,14.70
2018,08,16,00,37,14.70
2018,08,16,00,38,14.70
2018,08,16,00,39,14.70
2018,08,16,00,40,14.60
2018,08,16,00,41,14.60
2018,08,16,00,42,14.60
2018,08,16,00,43,14.60
2018,08,16,00,44,14.50
2018,08,16,00,45,14.50
2018,08,16,00,46,14.50
2018,08,16,00,47,14.50
2018,08,16,00,48,14.50
2018,08,16,00,49,14.40
2018,08,16,00,50,14.40
2018,08,16,00,51,14.40
2018,08,16,00,52,14.40
2018,08,16,00,53,14.40
2018,08,16,00,54,14.30
2018,08,16,00,55,14.30
2018,08,16,00,56,14.30
2018,08,16,00,57,14.20
2018,08,16,00,58,14.20
2018,08,16,00,59,14.20
2018,08,16,01,00,14.20
2018,08,16,01,01,14.20
2018,08,16,01,02,14.20
2018,08,16,01,03,14.20
2018,08,16,01,04,14.20
2018,08,16,01,05,14.20
2018,08,16,01,06,14.20
2018,08,16,01,07,14.20
2018,08,16,01,08,14.20
2018,08,16,01,09,14.20
2018,08,16,01,10,14.20
2018,08,16,01,11,14.20
2018,08,16,01,12,14.20
2018,08,16,01,13,14.20
2018,08,16,01,14,14.20
2018,08,16,01,15,14.20
2018,08,16,01,16,14.20
2018,08,16,01,17,14.20
2018,08,16,01,18,14.20
2018,08,16,01,19,14.10
2018,08,16,01,20,14.10
2018,08,16,01,21,14.00
2018,08,16,01,22,14.00
2018,08,16,01,23,13.90
2018,08,16,01,24,13.90
2018,08,16,01,25,13.80
2018,08,16,01,26,13.80
2018,08,16,01,27,13.70
2018,08,16,01,28,13.70
2018,08,16,01,29,13.70
2018,08,16,01,30,13.70
2018,08,16,01,31,13.70
2018,08,16,01,32,13.70
2018,08,16,01,33,13.60
2018,08,16,01,34,13.60
2018,08,16,01,35,13.60
2018,08,16,01,36,13.60
2018,08,16,01,37,13.60
2018,08,16,01,38,13.50
2018,08,16,01,39,13.50
2018,08,16,01,40,13.40
2018,08,16,01,41,13.40
2018,08,16,01,42,13.40
2018,08,16,01,43,13.40
2018,08,16,01,44,13.30
2018,08,16,01,45,13.30
2018,08,16,01,46,13.30
2018,08,16,01,47,13.30
2018,08,16,01,48,13.30
2018,08,16,01,49,13.30
2018,08,16,01,50,13.30
2018,08,16,01,51,13.30
2018,08,16,01,52,13.30
2018,08,16,01,53,13.30
2018,08,16,01,54,13.30
2018,08,16,01,55,13.30
2018,08,16,01,56,13.30
2018,08,16,01,57,13.30
2018,08,16,01,58,13.30
2018,08,16,01,59,13.30
2018,08,16,02,00,13.30
2018,08,16,02,01,13.30
2018,08,16,02,02,13.30
2018,08,16,02,03,13.30
2018,08,16,02,04,13.30
2018,08,16,02,05,13.30
2018,08,16,02,06,13.20
2018,08,16,02,07,13.20
2018,08,16,02,08,13.20
2018,08,16,02,09,13.20
2018,08,16,02,10,13.10
2018,08,16,02,11,13.10
2018,08,16,02,12,13.10
2018,08,16,02,13,13.10
2018,08,16,02,14,13.10
2018,08,16,02,15,13.10
2018,08,16,02,16,13.10
2018,08,16,02,17,13.10
2018,08,16,02,18,13.10
2018,08,16,02,19,13.10
2018,08,16,02,20,13.10
2018,08,16,02,21,13.00
2018,08,16,02,22,13.00
2018,08,16,02,23,13.00
2018,08,16,02,24,13.00
2018,08,16,02,25,13.00
2018,08,16,02,26,13.00
2018,08,16,02,27,13.00
2018,08,16,02,28,13.00
2018,08,16,02,29,12.90
2018,08,16,02,30,12.90
2018,08,16,02,31,12.90
2018,08,16,02,32,12.90
2018,08,16,02,33,12.90
2018,08,16,02,34,12.90
2018,08,16,02,35,12.90
2018,08,16,02,36,12.90
2018,08,16,02,37,12.90
2018,08,16,02,38,12.90
2018,08,16,02,39,12.90
2018,08,16,02,40,12.90
2018,08,16,02,41,12.90
2018,08,16,02,42,12.90
2018,08,16,02,43,12.80
2018,08,16,02,44,12.80
2018,08,16,02,45,12.80
2018,08,16,02,46,12.80
2018,08,16,02,47,12.80
2018,08,16,02,48,12.80
2018,08,16,02,49,12.80
2018,08,16,02,50,12.80
2018,08,16,02,51,12.80
2018,08,16,02,52,12.80
2018,08,16,02,53,12.80
2018,08,16,02,54,12.80
2018,08,16,02,55,12.80
2018,08,16,02,56,12.80
2018,08,16,02,57,12.80
2018,08,16,02,58,12.80
2018,08,16,02,59,12.80
2018,08,16,03,00,12.80
2018,08,16,03,01,12.80
2018,08,16,03,02,12.80
2018,08,16,03,03,12.80
2018,08,16,03,04,12.80
2018,08,16,03,05,12.80
2018,08,16,03,06,12.80
2018,08,16,03,07,12.70
2018,08,16,03,08,12.70
2018,08,16,03,09,12.70
2018,08,16,03,10,12.60
2018,08,16,03,11,12.60
2018,08,16,03,12,12.60
2018,08,16,03,13,12.60
2018,08,16,03,14,12.60
2018,08,16,03,15,12.60
2018,08,16,03,16,12.60
2018,08,16,03,17,12.60
2018,08,16,03,18,12.50
2018,08,16,03,19,12.50
2018,08,16,03,20,12.50
2018,08,16,03,21,12.50
2018,08,16,03,22,12.50
2018,08,16,03,23,12.50
2018,08,16,03,24,12.50
2018,08,16,03,25,12.50
2018,08,16,03,26,12.50
2018,08,16,03,27,12.50
2018,08,16,03,28,12.50
2018,08,16,03,29,12.50
2018,08,16,03,30,12.50
2018,08,16,03,31,12.50
2018,08,16,03,32,12.50
2018,08,16,03,33,12.50
2018,08,16,03,34,12.50
2018,08,16,03,35,12.50
2018,08,16,03,36,12.50
2018,08,16,03,37,12.50
2018,08,16,03,38,12.50
2018,08,16,03,39,12.50
2018,08,16,03,40,12.50
2018,08,16,03,41,12.60
2018,08,16,03,42,12.60
2018,08,16,03,43,12.60
2018,08,16,03,44,12.60
2018,08,16,03,45,12.60
2018,08,16,03,46,12.50
2018,08,16,03,47,12.50
2018,08,16,03,48,12.50
2018,08,16,03,49,12.50
2018,08,16,03,50,12.50
2018,08,16,03,51,12.50
2018,08,16,03,52,12.40
2018,08,16,03,53,12.40
2018,08,16,03,54,12.30
2018,08,16,03,55,12.30
2018,08,16,03,56,12.30
2018,08,16,03,57,12.30
2018,08,16,03,58,12.30
2018,08,16,03,59,12.30
2018,08,16,04,00,12.30
2018,08,16,04,01,12.30
2018,08,16,04,02,12.30
2018,08,16,04,03,12.30
2018,08,16,04,04,12.30
2018,08,16,04,05,12.30
2018,08,16,04,06,12.30
2018,08,16,04,07,12.30
2018,08,16,04,08,12.30
2018,08,16,04,09,12.30
2018,08,16,04,10,12.30
2018,08,16,04,11,12.30
2018,08,16,04,12,12.30
2018,08,16,04,13,12.30
2018,08,16,04,14,12.30
2018,08,16,04,15,12.30
2018,08,16,04,16,12.20
2018,08,16,04,17,12.20
2018,08,16,04,18,12.20
2018,08,16,04,19,12.10
2018,08,16,04,20,12.10
2018,08,16,04,21,12.10
2018,08,16,04,22,12.10
2018,08,16,04,23,12.10
2018,08,16,04,24,12.00
2018,08,16,04,25,12.00
2018,08,16,04,26,12.00
2018,08,16,04,27,12.00
2018,08,16,04,28,12.00
2018,08,16,04,29,12.00
2018,08,16,04,30,12.00
2018,08,16,04,31,12.00
2018,08,16,04,32,12.00
2018,08,16,04,33,12.00
2018,08,16,04,34,12.00
2018,08,16,04,35,12.00
2018,08,16,04,36,12.00
2018,08,16,04,37,11.90
2018,08,16,04,38,11.90
2018,08,16,04,39,11.90
2018,08,16,04,40,11.90
2018,08,16,04,41,11.90
2018,08,16,04,42,11.80
2018,08,16,04,43,11.80
2018,08,16,04,44,11.80
2018,08,16,04,45,11.80
2018,08,16,04,46,11.80
2018,08,16,04,47,11.80
2018,08,16,04,48,11.80
2018,08,16,04,49,11.80
2018,08,16,04,50,11.80
2018,08,16,04,51,11.80
2018,08,16,04,52,11.80
2018,08,16,04,53,11.80
2018,08,16,04,54,11.80
2018,08,16,04,55,11.80
2018,08,16,04,56,11.80
2018,08,16,04,57,11.80
2018,08,16,04,58,11.80
2018,08,16,04,59,11.80
2018,08,16,05,00,11.80
2018,08,16,05,01,11.80
2018,08,16,05,02,11.80
2018,08,16,05,03,11.80
2018,08,16,05,04,11.80
2018,08,16,05,05,11.80
2018,08,16,05,06,11.80
2018,08,16,05,07,11.80
2018,08,16,05,08,11.80
2018,08,16,05,09,11.80
2018,08,16,05,10,11.80
2018,08,16,05,11,11.80
2018,08,16,05,12,11.80
2018,08,16,05,13,11.80
2018,08,16,05,14,11.80
2018,08,16,05,15,11.80
2018,08,16,05,16,11.80
2018,08,16,05,17,11.80
2018,08,16,05,18,11.80
2018,08,16,05,19,11.80
2018,08,16,05,20,11.80
2018,08,16,05,21,11.70
2018,08,16,05,22,11.70
2018,08,16,05,23,11.70
2018,08,16,05,24,11.70
2018,08,16,05,25,11.70
2018,08,16,05,26,11.70
2018,08,16,05,27,11.70
2018,08,16,05,28,11.70
2018,08,16,05,29,11.70
2018,08,16,05,30,11.80
2018,08,16,05,31,11.80
2018,08,16,05,32,11.80
2018,08,16,05,33,11.80
2018,08,16,05,34,11.80
2018,08,16,05,35,11.80
2018,08,16,05,36,11.80
2018,08,16,05,37,11.80
2018,08,16,05,38,11.80
2018,08,16,05,39,11.80
2018,08,16,05,40,11.80
2018,08,16,05,41,11.80
2018,08,16,05,42,11.80
2018,08,16,05,43,11.80
2018,08,16,05,44,11.70
2018,08,16,05,45,11.70
2018,08,16,05,46,11.70
2018,08,16,05,47,11.70
2018,08,16,05,48,11.70
2018,08,16,05,49,11.60
2018,08,16,05,50,11.60
2018,08,16,05,51,11.60
2018,08,16,05,52,11.60
2018,08,16,05,53,11.60
2018,08,16,05,54,11.60
2018,08,16,05,55,11.60
2018,08,16,05,56,11.60
2018,08,16,05,57,11.60
2018,08,16,05,58,11.60
2018,08,16,05,59,11.60
2018,08,16,06,00,11.60
2018,08,16,06,01,11.60
2018,08,16,06,02,11.60
2018,08,16,06,03,11.60
2018,08,16,06,04,11.60
2018,08,16,06,05,11.60
2018,08,16,06,06,11.60
2018,08,16,06,07,11.60
2018,08,16,06,08,11.60
2018,08,16,06,09,11.60
2018,08,16,06,10,11.60
2018,08,16,06,11,11.60
2018,08,16,06,12,11.50
2018,08,16,06,13,11.40
2018,08,16,06,14,11.40
2018,08,16,06,15,11.40
2018,08,16,06,16,11.40
2018,08,16,06,17,11.40
2018,08,16,06,18,11.40
2018,08,16,06,19,11.50
2018,08,16,06,20,11.60
2018,08,16,06,21,11.60
2018,08,16,06,22,11.60
2018,08,16,06,23,11.60
2018,08,16,06,24,11.60
2018,08,16,06,25,11.60
2018,08,16,06,26,11.60
2018,08,16,06,27,11.50
2018,08,16,06,28,11.40
2018,08,16,06,29,11.40
2018,08,16,06,30,11.40
2018,08,16,06,31,11.40
2018,08,16,06,32,11.40
2018,08,16,06,33,11.40
2018,08,16,06,34,11.40
2018,08,16,06,35,11.40
2018,08,16,06,36,11.40
2018,08,16,06,37,11.40
2018,08,16,06,38,11.40
2018,08,16,06,39,11.50
2018,08,16,06,40,11.50
2018,08,16,06,41,11.60
2018,08,16,06,42,11.60
2018,08,16,06,43,11.60
2018,08,16,06,44,11.60
2018,08,16,06,45,11.60
2018,08,16,06,46,11.60
2018,08,16,06,47,11.70
2018,08,16,06,48,11.80
2018,08,16,06,49,11.80
2018,08,16,06,50,11.80
2018,08,16,06,51,11.80
2018,08,16,06,52,11.80
2018,08,16,06,53,11.80
2018,08,16,06,54,11.80
2018,08,16,06,55,11.80
2018,08,16,06,56,11.80
2018,08,16,06,57,11.80
2018,08,16,06,58,11.80
2018,08,16,06,59,11.80
2018,08,16,07,00,11.80
2018,08,16,07,01,11.80
2018,08,16,07,02,11.80
2018,08,16,07,03,11.80
2018,08,16,07,04,11.80
2018,08,16,07,05,11.90
2018,08,16,07,06,11.90
2018,08,16,07,07,12.00
2018,08,16,07,08,12.00
2018,08,16,07,09,12.00
2018,08,16,07,10,12.10
2018,08,16,07,11,12.10
2018,08,16,07,12,12.20
2018,08,16,07,13,12.20
2018,08,16,07,14,12.20
2018,08,16,07,15,12.20
2018,08,16,07,16,12.30
2018,08,16,07,17,12.30
2018,08,16,07,18,12.30
2018,08,16,07,19,12.30
2018,08,16,07,20,12.30
2018,08,16,07,21,12.40
2018,08,16,07,22,12.40
2018,08,16,07,23,12.50
2018,08,16,07,24,12.50
2018,08,16,07,25,12.60
2018,08,16,07,26,12.60
2018,08,16,07,27,12.60
2018,08,16,07,28,12.70
2018,08,16,07,29,12.80
2018,08,16,07,30,12.80
2018,08,16,07,31,12.80
2018,08,16,07,32,12.80
2018,08,16,07,33,12.90
2018,08,16,07,34,12.90
2018,08,16,07,35,13.00
2018,08,16,07,36,13.00
2018,08,16,07,37,13.00
2018,08,16,07,38,13.10
2018,08,16,07,39,13.10
2018,08,16,07,40,13.20
2018,08,16,07,41,13.30
2018,08,16,07,42,13.30
2018,08,16,07,43,13.40
2018,08,16,07,44,13.50
2018,08,16,07,45,13.50
2018,08,16,07,46,13.60
2018,08,16,07,47,13.60
2018,08,16,07,48,13.70
2018,08,16,07,49,13.70
2018,08,16,07,50,13.70
2018,08,16,07,51,13.80
2018,08,16,07,52,13.80
2018,08,16,07,53,13.90
2018,08,16,07,54,13.90
2018,08,16,07,55,13.90
2018,08,16,07,56,14.00
2018,08,16,07,57,14.00
2018,08,16,07,58,14.10
2018,08,16,07,59,14.20
2018,08,16,08,00,14.20
2018,08,16,08,01,14.20
2018,08,16,08,02,14.30
2018,08,16,08,03,14.30
2018,08,16,08,04,14.40
2018,08,16,08,05,14.40
2018,08,16,08,06,14.50
2018,08,16,08,07,14.50
2018,08,16,08,08,14.60
2018,08,16,08,09,14.60
2018,08,16,08,10,14.60
2018,08,16,08,11,14.60
2018,08,16,08,12,14.60
2018,08,16,08,13,14.60
2018,08,16,08,14,14.70
2018,08,16,08,15,14.80
2018,08,16,08,16,14.80
2018,08,16,08,17,14.80
2018,08,16,08,18,14.90
2018,08,16,08,19,14.90
2018,08,16,08,20,15.00
2018,08,16,08,21,15.10
2018,08,16,08,22,15.10
2018,08,16,08,23,15.20
2018,08,16,08,24,15.30
2018,08,16,08,25,15.30
2018,08,16,08,26,15.30
2018,08,16,08,27,15.40
2018,08,16,08,28,15.40
2018,08,16,08,29,15.50
2018,08,16,08,30,15.50
2018,08,16,08,31,15.50
2018,08,16,08,32,15.50
2018,08,16,08,33,15.50
2018,08,16,08,34,15.50
2018,08,16,08,35,15.60
2018,08,16,08,36,15.60
2018,08,16,08,37,15.70
2018,08,16,08,38,15.70
2018,08,16,08,39,15.80
2018,08,16,08,40,15.80
2018,08,16,08,41,15.80
2018,08,16,08,42,15.80
2018,08,16,08,43,15.90
2018,08,16,08,44,16.00
2018,08,16,08,45,16.10
2018,08,16,08,46,16.10
2018,08,16,08,47,16.20
2018,08,16,08,48,16.20
2018,08,16,08,49,16.20
2018,08,16,08,50,16.20
2018,08,16,08,51,16.20
2018,08,16,08,52,16.10
2018,08,16,08,53,16.10
2018,08,16,08,54,16.10
2018,08,16,08,55,16.10
2018,08,16,08,56,16.10
2018,08,16,08,57,16.10
2018,08,16,08,58,16.10
2018,08,16,08,59,16.10
2018,08,16,09,00,16.10
2018,08,16,09,01,16.10
2018,08,16,09,02,16.10
2018,08,16,09,03,16.10
2018,08,16,09,04,16.10
2018,08,16,09,05,16.10
2018,08,16,09,06,16.20
2018,08,16,09,07,16.30
2018,08,16,09,08,16.40
2018,08,16,09,09,16.40
2018,08,16,09,10,16.40
2018,08,16,09,11,16.40
2018,08,16,09,12,16.40
2018,08,16,09,13,16.40
2018,08,16,09,14,16.40
2018,08,16,09,15,16.50
2018,08,16,09,16,16.60
2018,08,16,09,17,16.70
2018,08,16,09,18,16.70
2018,08,16,09,19,16.70
2018,08,16,09,20,16.70
2018,08,16,09,21,16.60
2018,08,16,09,22,16.60
2018,08,16,09,23,16.40
2018,08,16,09,24,16.50
2018,08,16,09,25,16.50
2018,08,16,09,26,16.40
2018,08,16,09,27,16.40
2018,08,16,09,28,16.40
2018,08,16,09,29,16.50
2018,08,16,09,30,16.60
2018,08,16,09,31,16.70
2018,08,16,09,32,16.70
2018,08,16,09,33,16.90
2018,08,16,09,34,16.90
2018,08,16,09,35,17.00
2018,08,16,09,36,17.00
2018,08,16,09,37,17.20
2018,08,16,09,38,17.30
2018,08,16,09,39,17.30
2018,08,16,09,40,17.40
2018,08,16,09,41,17.40
2018,08,16,09,42,17.50
2018,08,16,09,43,17.50
2018,08,16,09,44,17.60
2018,08,16,09,45,17.60
2018,08,16,09,46,17.70
2018,08,16,09,47,17.70
2018,08,16,09,48,17.60
2018,08,16,09,49,17.60
2018,08,16,09,50,17.60
2018,08,16,09,51,17.60
2018,08,16,09,52,17.50
2018,08,16,09,53,17.60
2018,08,16,09,54,17.70
2018,08,16,09,55,17.80
2018,08,16,09,56,17.80
2018,08,16,09,57,17.90
2018,08,16,09,58,18.00
2018,08,16,09,59,18.10
2018,08,16,10,00,18.20
2018,08,16,10,01,18.30
2018,08,16,10,02,18.40
2018,08,16,10,03,18.40
2018,08,16,10,04,18.50
2018,08,16,10,05,18.60
2018,08,16,10,06,18.70
2018,08,16,10,07,18.70
2018,08,16,10,08,18.90
2018,08,16,10,09,19.00
2018,08,16,10,10,19.10
2018,08,16,10,11,19.10
2018,08,16,10,12,19.20
2018,08,16,10,13,19.20
2018,08,16,10,14,19.30
2018,08,16,10,15,19.40
2018,08,16,10,16,19.40
2018,08,16,10,17,19.40
2018,08,16,10,18,19.40
2018,08,16,10,19,19.40
2018,08,16,10,20,19.40
2018,08,16,10,21,19.50
2018,08,16,10,22,19.50
2018,08,16,10,23,19.60
2018,08,16,10,24,19.70
2018,08,16,10,25,19.90
2018,08,16,10,26,20.00
2018,08,16,10,27,20.20
2018,08,16,10,28,20.30
2018,08,16,10,29,20.40
2018,08,16,10,30,20.50
2018,08,16,10,31,20.60
2018,08,16,10,32,20.60
2018,08,16,10,33,20.70
2018,08,16,10,34,20.80
2018,08,16,10,35,20.80
2018,08,16,10,36,20.80
2018,08,16,10,37,20.90
2018,08,16,10,38,20.90
2018,08,16,10,39,20.90
2018,08,16,10,40,20.90
2018,08,16,10,41,21.00
2018,08,16,10,42,21.00
2018,08,16,10,43,21.00
2018,08,16,10,44,21.00
2018,08,16,10,45,21.00
2018,08,16,10,46,20.90
2018,08,16,10,47,20.90
2018,08,16,10,48,20.90
2018,08,16,10,49,20.90
2018,08,16,10,50,20.80
2018,08,16,10,51,20.80
2018,08,16,10,52,20.80
2018,08,16,10,53,20.90
2018,08,16,10,54,21.00
2018,08,16,10,55,21.10
2018,08,16,10,56,21.20
2018,08,16,10,57,21.30
2018,08,16,10,58,21.30
2018,08,16,10,59,21.40
2018,08,16,11,00,21.40
2018,08,16,11,01,21.40
2018,08,16,11,02,21.30
2018,08,16,11,03,21.30
2018,08,16,11,04,21.30
2018,08,16,11,05,21.30
2018,08,16,11,06,21.10
2018,08,16,11,07,21.00
2018,08,16,11,08,21.00
2018,08,16,11,09,21.00
2018,08,16,11,10,21.00
2018,08,16,11,11,21.00
2018,08,16,11,12,21.00
2018,08,16,11,13,20.90
2018,08,16,11,14,20.90
2018,08,16,11,15,20.90
2018,08,16,11,16,20.80
2018,08,16,11,17,20.80
2018,08,16,11,18,20.90
2018,08,16,11,19,20.90
2018,08,16,11,20,20.90
2018,08,16,11,21,21.00
2018,08,16,11,22,21.00
2018,08,16,11,23,21.10
2018,08,16,11,24,21.30
2018,08,16,11,25,21.30
2018,08,16,11,26,21.50
2018,08,16,11,27,21.60
2018,08,16,11,28,21.70
2018,08,16,11,29,21.80
2018,08,16,11,30,22.00
2018,08,16,11,31,22.10
2018,08,16,11,32,22.10
2018,08,16,11,33,22.10
2018,08,16,11,34,22.10
2018,08,16,11,35,22.10
2018,08,16,11,36,22.10
2018,08,16,11,37,22.00
2018,08,16,11,38,21.90
2018,08,16,11,39,21.80
2018,08,16,11,40,21.80
2018,08,16,11,41,21.90
2018,08,16,11,42,21.90
2018,08,16,11,43,21.80
2018,08,16,11,44,21.70
2018,08,16,11,45,21.60
2018,08,16,11,46,21.60
2018,08,16,11,47,21.70
2018,08,16,11,48,21.70
2018,08,16,11,49,21.70
2018,08,16,11,50,21.80
2018,08,16,11,51,22.00
2018,08,16,11,52,22.10
2018,08,16,11,53,22.10
2018,08,16,11,54,22.20
2018,08,16,11,55,22.10
2018,08,16,11,56,22.00
2018,08,16,11,57,21.90
2018,08,16,11,58,21.80
2018,08,16,11,59,21.80
2018,08,16,12,00,21.90
2018,08,16,12,01,21.90
2018,08,16,12,02,21.70
2018,08,16,12,03,21.60
2018,08,16,12,04,21.60
2018,08,16,12,05,21.60
2018,08,16,12,06,21.60
2018,08,16,12,07,21.60
2018,08,16,12,08,21.70
2018,08,16,12,09,21.90
2018,08,16,12,10,22.00
2018,08,16,12,11,22.00
2018,08,16,12,12,21.90
2018,08,16,12,13,21.80
2018,08,16,12,14,21.80
2018,08,16,12,15,21.70
2018,08,16,12,16,21.60
2018,08,16,12,17,21.60
2018,08,16,12,18,21.70
2018,08,16,12,19,21.80
2018,08,16,12,20,21.80
2018,08,16,12,21,21.70
2018,08,16,12,22,21.70
2018,08,16,12,23,21.70
2018,08,16,12,24,21.70
2018,08,16,12,25,21.80
2018,08,16,12,26,21.80
2018,08,16,12,27,21.80
2018,08,16,12,28,21.80
2018,08,16,12,29,21.80
2018,08,16,12,30,21.80
2018,08,16,12,31,21.80
2018,08,16,12,32,21.90
2018,08,16,12,33,21.90
2018,08,16,12,34,21.90
2018,08,16,12,35,21.80
2018,08,16,12,36,21.90
2018,08,16,12,37,21.80
2018,08,16,12,38,21.70
2018,08,16,12,39,21.60
2018,08,16,12,40,21.60
2018,08,16,12,41,21.60
2018,08,16,12,42,21.70
2018,08,16,12,43,21.70
2018,08,16,12,44,21.60
2018,08,16,12,45,21.80
2018,08,16,12,46,21.90
2018,08,16,12,47,22.10
2018,08,16,12,48,22.10
2018,08,16,12,49,22.20
2018,08,16,12,50,22.30
2018,08,16,12,51,22.30
2018,08,16,12,52,22.30
2018,08,16,12,53,22.40
2018,08,16,12,54,22.40
2018,08,16,12,55,22.50
2018,08,16,12,56,22.40
2018,08,16,12,57,22.40
2018,08,16,12,58,22.20
2018,08,16,12,59,22.10
2018,08,16,13,00,22.00
2018,08,16,13,01,22.00
2018,08,16,13,02,22.20
2018,08,16,13,03,22.20
2018,08,16,13,04,22.30
2018,08,16,13,05,22.30
2018,08,16,13,06,22.40
2018,08,16,13,07,22.40
2018,08,16,13,08,22.60
2018,08,16,13,09,22.60
2018,08,16,13,10,22.60
2018,08,16,13,11,22.70
2018,08,16,13,12,22.70
2018,08,16,13,13,22.60
2018,08,16,13,14,22.60
2018,08,16,13,15,22.70
2018,08,16,13,16,22.70
2018,08,16,13,17,22.60
2018,08,16,13,18,22.50
2018,08,16,13,19,22.60
2018,08,16,13,20,22.60
2018,08,16,13,21,22.60
2018,08,16,13,22,22.60
2018,08,16,13,23,22.50
2018,08,16,13,24,22.60
2018,08,16,13,25,22.50
2018,08,16,13,26,22.40
2018,08,16,13,27,22.40
2018,08,16,13,28,22.30
2018,08,16,13,29,22.20
2018,08,16,13,30,22.10
2018,08,16,13,31,22.10
2018,08,16,13,32,22.10
2018,08,16,13,33,22.00
2018,08,16,13,34,22.00
2018,08,16,13,35,21.90
2018,08,16,13,36,21.90
2018,08,16,13,37,21.80
2018,08,16,13,38,21.70
2018,08,16,13,39,21.60
2018,08,16,13,40,21.60
2018,08,16,13,41,21.60
2018,08,16,13,42,21.60
2018,08,16,13,43,21.70
2018,08,16,13,44,21.60
2018,08,16,13,45,21.60
2018,08,16,13,46,21.60
2018,08,16,13,47,21.50
2018,08,16,13,48,21.60
2018,08,16,13,49,21.60
2018,08,16,13,50,21.60
2018,08,16,13,51,21.60
2018,08,16,13,52,21.60
2018,08,16,13,53,21.60
2018,08,16,13,54,21.70
2018,08,16,13,55,21.80
2018,08,16,13,56,22.00
2018,08,16,13,57,22.00
2018,08,16,13,58,21.90
2018,08,16,13,59,21.80
2018,08,16,14,00,21.70
2018,08,16,14,01,21.60
2018,08,16,14,02,21.60
2018,08,16,14,03,21.60
2018,08,16,14,04,21.50
2018,08,16,14,05,21.40
2018,08,16,14,06,21.50
2018,08,16,14,07,21.60
2018,08,16,14,08,21.80
2018,08,16,14,09,21.80
2018,08,16,14,10,21.90
2018,08,16,14,11,22.00
2018,08,16,14,12,22.00
2018,08,16,14,13,22.00
2018,08,16,14,14,21.90
2018,08,16,14,15,22.00
2018,08,16,14,16,22.00
2018,08,16,14,17,22.00
2018,08,16,14,18,22.00
2018,08,16,14,19,22.00
2018,08,16,14,20,22.00
2018,08,16,14,21,22.00
2018,08,16,14,22,22.00
2018,08,16,14,23,22.10
2018,08,16,14,24,22.30
2018,08,16,14,25,22.50
2018,08,16,14,26,22.60
2018,08,16,14,27,22.60
2018,08,16,14,28,22.80
2018,08,16,14,29,22.80
2018,08,16,14,30,22.70
2018,08,16,14,31,22.70
2018,08,16,14,32,22.70
2018,08,16,14,33,22.60
2018,08,16,14,34,22.50
2018,08,16,14,35,22.40
2018,08,16,14,36,22.30
2018,08,16,14,37,22.30
2018,08,16,14,38,22.40
2018,08,16,14,39,22.50
2018,08,16,14,40,22.60
2018,08,16,14,41,22.50
2018,08,16,14,42,22.50
2018,08,16,14,43,22.40
2018,08,16,14,44,22.30
2018,08,16,14,45,22.20
2018,08,16,14,46,22.30
2018,08,16,14,47,22.40
2018,08,16,14,48,22.40
2018,08,16,14,49,22.30
2018,08,16,14,50,22.40
2018,08,16,14,51,22.30
2018,08,16,14,52,22.30
2018,08,16,14,53,22.20
2018,08,16,14,54,22.30
2018,08,16,14,55,22.40
2018,08,16,14,56,22.50
2018,08,16,14,57,22.50
2018,08,16,14,58,22.50
2018,08,16,14,59,22.50
2018,08,16,15,00,22.60
2018,08,16,15,01,22.60
2018,08,16,15,02,22.40
2018,08,16,15,03,22.40
2018,08,16,15,04,22.50
2018,08,16,15,05,22.60
2018,08,16,15,06,22.60
2018,08,16,15,07,22.50
2018,08,16,15,08,22.40
2018,08,16,15,09,22.40
2018,08,16,15,10,22.50
2018,08,16,15,11,22.70
2018,08,16,15,12,22.80
2018,08,16,15,13,22.90
2018,08,16,15,14,22.80
2018,08,16,15,15,22.80
2018,08,16,15,16,22.80
2018,08,16,15,17,22.90
2018,08,16,15,18,22.90
2018,08,16,15,19,22.90
2018,08,16,15,20,22.90
2018,08,16,15,21,22.80
2018,08,16,15,22,22.70
2018,08,16,15,23,22.70
2018,08,16,15,24,22.90
2018,08,16,15,25,22.80
2018,08,16,15,26,22.70
2018,08,16,15,27,22.60
2018,08,16,15,28,22.50
2018,08,16,15,29,22.40
2018,08,16,15,30,22.40
2018,08,16,15,31,22.30
2018,08,16,15,32,22.40
2018,08,16,15,33,22.30
2018,08,16,15,34,22.30
2018,08,16,15,35,22.20
2018,08,16,15,36,22.20
2018,08,16,15,37,22.20
2018,08,16,15,38,22.20
2018,08,16,15,39,22.20
2018,08,16,15,40,22.30
2018,08,16,15,41,22.30
2018,08,16,15,42,22.40
2018,08,16,15,43,22.40
2018,08,16,15,44,22.40
2018,08,16,15,45,22.40
2018,08,16,15,46,22.50
2018,08,16,15,47,22.60
2018,08,16,15,48,22.60
2018,08,16,15,49,22.70
2018,08,16,15,50,22.60
2018,08,16,15,51,22.60
2018,08,16,15,52,22.70
2018,08,16,15,53,22.80
2018,08,16,15,54,22.70
2018,08,16,15,55,22.70
2018,08,16,15,56,22.70
2018,08,16,15,57,22.60
2018,08,16,15,58,22.50
2018,08,16,15,59,22.40
2018,08,16,16,00,22.50
2018,08,16,16,01,22.40
2018,08,16,16,02,22.50
2018,08,16,16,03,22.50
2018,08,16,16,04,22.50
2018,08,16,16,05,22.50
2018,08,16,16,06,22.40
2018,08,16,16,07,22.40
2018,08,16,16,08,22.50
2018,08,16,16,09,22.60
2018,08,16,16,10,22.70
2018,08,16,16,11,22.70
2018,08,16,16,12,22.70
2018,08,16,16,13,22.60
2018,08,16,16,14,22.50
2018,08,16,16,15,22.40
2018,08,16,16,16,22.20
2018,08,16,16,17,22.10
2018,08,16,16,18,22.00
2018,08,16,16,19,21.90
2018,08,16,16,20,21.80
2018,08,16,16,21,21.80
2018,08,16,16,22,21.80
2018,08,16,16,23,21.90
2018,08,16,16,24,22.10
2018,08,16,16,25,22.30
2018,08,16,16,26,22.20
2018,08,16,16,27,22.10
2018,08,16,16,28,22.10
2018,08,16,16,29,22.00
2018,08,16,16,30,22.00
2018,08,16,16,31,21.80
2018,08,16,16,32,21.80
2018,08,16,16,33,21.80
2018,08,16,16,34,21.70
2018,08,16,16,35,21.60
2018,08,16,16,36,21.60
2018,08,16,16,37,21.70
2018,08,16,16,38,21.70
2018,08,16,16,39,21.70
2018,08,16,16,40,21.80
2018,08,16,16,41,21.80
2018,08,16,16,42,21.80
2018,08,16,16,43,21.80
2018,08,16,16,44,21.70
2018,08,16,16,45,21.70
2018,08,16,16,46,21.70
2018,08,16,16,47,21.60
2018,08,16,16,48,21.40
2018,08,16,16,49,21.30
2018,08,16,16,50,21.20
2018,08,16,16,51,21.20
2018,08,16,16,52,21.30
2018,08,16,16,53,21.40
2018,08,16,16,54,21.40
2018,08,16,16,55,21.60
2018,08,16,16,56,21.60
2018,08,16,16,57,21.60
2018,08,16,16,58,21.60
2018,08,16,16,59,21.60
2018,08,16,17,00,21.60
2018,08,16,17,01,21.60
2018,08,16,17,02,21.60
2018,08,16,17,03,21.50
2018,08,16,17,04,21.40
2018,08,16,17,05,21.40
2018,08,16,17,06,21.50
2018,08,16,17,07,21.60
2018,08,16,17,08,21.60
2018,08,16,17,09,21.60
2018,08,16,17,10,21.60
2018,08,16,17,11,21.60
2018,08,16,17,12,21.60
2018,08,16,17,13,21.60
2018,08,16,17,14,21.40
2018,08,16,17,15,21.40
2018,08,16,17,16,21.30
2018,08,16,17,17,21.40
2018,08,16,17,18,21.50
2018,08,16,17,19,21.60